Location: Strawberry
(45.6646°N, 111.9596°W)
Time: 22:14:45
(UTC+00:00)

Courier 1B Rocket - Pass Details

Date: 06 October 2022
Orbit: 920 x 1202 km, 28.3° (Epoch: 03 December)

Event Time Altitude Azimuth Distance (km) Brightness Sun altitude
Rises 02:16:03 0° 231° (SW) 3,806 8.8 -14.1°
Reaches altitude 10° 02:19:58 10° 211° (SSW) 2,792 7.7 -14.8°
Maximum altitude 02:23:51 16° 176° (S) 2,321 6.8 -15.4°
Enters shadow 02:27:04 11° 144° (SE) 2,592 6.8 -16.0°
Drops below altitude 10° 02:27:36 10° 140° (SE) 2,688 - -16.1°
Sets 02:31:15 0° 119° (ESE) 3,595 - -16.7°
